Regional Weather Roundup
Issued by NWS Charleston, SC

Current Version | Previous Version | Text Only | Print | Product List | Glossary On
Versions: 1 2 3 4 5 6 7 8 9 10 11 12 13 14 15 16 17 18 19 20 21 22 23 24 25 26 27 28 29 30 31 32 33 34 35 36 37 38 39 40 41 42 43 44 45 46 47 48 49 50
000 ASUS42 KCHS 101127 RWRCHS REGIONAL WEATHER ROUNDUP NATIONAL WEATHER SERVICE CHARLESTON SC 600 AM EST SAT DEC 10 2016 NOTE: "FAIR" INDICATES FEW OR NO CLOUDS BELOW 12,000 FEET WITH NO SIGNIFICANT WEATHER AND/OR OBSTRUCTIONS TO VISIBILITY. NOT ALL STATIONS ARE QUALITY CONTROLLED. USE DATA WITH CAUTION... ESPECIALLY DEWPOINT OBSERVATIONS. SCZ027-030-031-034>040-042>050-101200- ...SOUTHEAST SOUTH CAROLINA... CITY SKY/WX TMP DP RH WIND PRES REMARKS N CHARLESTON CLEAR 31 22 69 NE6 30.51R WCI 25 WATERFRONT PRK N/A 39 28 64 NE12 30.48S WCI 32 MOUNT PLEASANT FAIR 34 27 75 N6 30.51S WCI 29 JOHNS ISLAND FAIR 37 21 52 NE10 30.51R WCI 30 PINOPOLIS N/A 36 27 69 E15 30.43R WCI 26 MONCKS CORNER FAIR 28 21 74 NE3 30.53R SUMMERVILLE FAIR 30 30 100 CALM 30.53R BEAUFORT MCAS CLEAR 33 26 75 NE7 30.51R WCI 27 BEAUFORT ARPT FAIR 37 30 75 NE8 30.50S WCI 31 HILTON HEAD IS NOT AVBL WALTERBORO SUNNY 28 N/A N/A CALM 30.53R ALLENDALE FAIR 30 25 80 CALM 30.52R ...SOUTHERN MIDLANDS AND PEE DEE... CITY SKY/WX TMP DP RH WIND PRES REMARKS GEORGETOWN FAIR 30 21 69 N3 30.52R KINGSTREE FAIR 28 19 69 N3 30.53R ORANGEBURG CLEAR 29 20 69 NE6 30.51R WCI 23 BARNWELL NOT AVBL AIKEN FAIR 27 19 74 NE3 30.53R MANNING FAIR 28 21 74 CALM 30.53R COLUMBIA CLEAR 25 21 85 CALM 30.51S SUMTER CLEAR 25 17 72 NE7 30.50R WCI 17 FLORENCE CLEAR 28 18 66 NE8 30.54R WCI 20 MYRTLE BEACH CLEAR 30 19 64 N10 30.54S WCI 21 N MYRTLE BEACH CLEAR 28 20 71 N7 30.52R WCI 21 $$ GAZ063-065-086>088-099>101-113>116-118-119-134>141-150-101200- ...SOUTHEAST GEORGIA... CITY SKY/WX TMP DP RH WIND PRES REMARKS SAVANNAH ARPT CLEAR 31 28 89 N3 30.50S HUNTER AAF CLEAR 35 28 74 N3 30.47R FORT STEWART CLEAR 30 26 87 CALM 30.47S STATESBORO CLEAR 28 28 100 CALM 30.51R SYLVANIA SUNNY N/A N/A N/A CALM 30.52R CLAXTON FAIR 29 29 100 CALM 30.51R ...CSRA...CENTRAL AND FAR SOUTHEAST GEORGIA... CITY SKY/WX TMP DP RH WIND PRES REMARKS THOMSON CLEAR 25 25 100 CALM 30.55R AUGUSTA-BUSH CLEAR 26 22 84 CALM 30.51R AUGUSTA-DANIEL CLEAR 29 21 72 CALM 30.50R SWAINSBORO FAIR 27 27 100 CALM 30.52R VIDALIA CLEAR 32 30 93 N3 30.51R EASTMAN FAIR 26 24 93 CALM 30.53S HAZLEHURST FAIR 30 29 94 N3 30.49R ALMA PTCLDY 31 27 85 CALM 30.48R WAYCROSS PTCLDY 32 30 94 CALM 30.48R JESUP FAIR 34 32 93 NE5 30.49R WCI 30 BAXLEY FAIR 30 30 100 CALM 30.49R BRUNSWICK CLEAR 39 36 87 N6 30.47R WCI 35 SAINT SIMONS CLEAR 41 36 82 N7 30.45R $$ SCZ027-028-034-036>038-045-046-048>050-GAZ119-141-101200- ...LAKE AND SUPPLEMENTAL COASTAL OBSERVATIONS... STATION/POSITION TIME TEMP WIND PRES WAVE SWELL AIR SEA DIR/SP/G HT/PER HT/PER/DIR (UTC) (F) (DEG/KT/KT) (MB) (FT/S) (FT/S/D) WINYAH BAY 1045 33 20/ 7 1033.0R LAKE MURRAY 1120 30 CALM / 3 1032.5R ACE BASIN NERRS 1030 35 20/ 2 1032.0S FORT PULASKI 1100 44 59 20/ 11/ 13 1032.4 SAPELO ISLAND 1100 46 30/ 7 1031.0 $$ ANZ835-935-AMZ111-154-330-350-352-354-370-450-454-472-101200- ...C-MAN AND BUOY OBSERVATIONS... STATION/POSITION TIME TEMP WIND PRES WAVE SWELL AIR SEA DIR/SP/G HT/PER HT/PER/DIR (UTC) (F) (DEG/KT/KT) (MB) (FT/S) (FT/S/D) BUOY 41004 1050 49 73 30/ 16/ 19 1031.0R 4/ 6 2/ 70/ 8 BUOY 41008 1050 51 62 40/ 16/ 21 1030.4S 4/ 5 2/ 70/ 9 FOLLY BEACH CMAN 1100 42 40/ 16/ 18 1033.1R CAPERS NEARSHORE 1108 44 60 40/ 16/ 21 1032.5R FRIPP NEARSHORE 1108 46 60 40/ 14/ 19 1032.1R STATION/POSITION TIME TEMP WIND PRES WAVE SWELL AIR SEA DIR/SP/G HT/PER HT/PER/DIR (UTC) (F) (DEG/KT/KT) (MB) (FT/S) (FT/S/D) 5E ST. MARYS GA 1100 64 N/A 4/ 5 FRYING PAN BUOY 1110 44 72 360/ 16/ 21 1032.5 BUOY 41025 1050 42 78 350/ 14/ 19 1031.7R 5/ 9 3/ 70/ 9 CAPE LOOKOUT NC 1100 34 350/ 11/ 14 1032.5R BUOY 41002 1050 58 73 360/ 6/ 10 1028.1R 5/ 7 5/ 10/ 7 BUOY 41010 NOT AVBL ST AUGUSTINE FL 1100 57 63 10/ 21/ 24 1029.6R $$

USA.gov is the U.S. government's official web portal to all federal, state and local government web resources and services.